Flag for Finland Weather past 2 weeks in Jyväskylä, Finland

Now
41 °F

Clear.


Feels Like: 41 °F
Forecast: 41 / 63 °F
Wind: 2 mph from Northwest

Location: Jyvaskyla Airport

Current Time: Aug 31, 2014 at 3:33:57 AM

Latest Report: Aug 31, 2014 at 2:50 AM


Visibility: 10 mi

Pressure: 30.18 "Hg

Humidity: 93%

Dew point: 39 °F

Location of JyväskyläLocation

Historic Weather in Jyväskylä — Graph

°F

Jyväskylä temperature yesterday

Maximum temperature yesterday: 54 °F (at 12:20 PM)
Minimum temperature yesterday: 45 °F (at 6:50 AM)
Average temperature yesterday: 50 °F

Past Weeks' High & Low Weather Summary

 TemperatureHumidityPressure
High68 °F (Aug 16, 5:20 PM)100% (Aug 16, 2:50 AM)30.15 "Hg (Aug 16, 2:50 AM)
Low41 °F (Aug 25, 3:50 AM)37% (Aug 16, 6:50 PM)29.36 "Hg (Aug 27, 3:20 AM)
Average55 °F87%29.64 "Hg
* Reported Aug 16 2:20 AM — Aug 31 2:20 AM, Jyväskylä, Weather by CustomWeather, © 2014

Note: Actual official high and low records may vary slightly from our data, if they occured in-between our weather recording intervals... More about our weather records

Advertising

Jyväskylä weather history for previous 24 hours

 ConditionsComfort  
Time TempWeatherWind HumidityBarometerVisibility
2:20 AM
Aug 31
41 °FClear.1 mph100%30.15 "Hg10 mi
1:50 AM43 °FClear.No wind100%30.15 "Hg10 mi
1:20 AM46 °FClear.2 mph93%30.15 "Hg10 mi
12:50 AM48 °FClear.5 mph87%30.15 "Hg10 mi
12:20 AM48 °FClear.3 mph87%30.15 "Hg10 mi
11:50 PM
Aug 30
50 °FClear.3 mph82%30.15 "Hg10 mi
11:20 PM50 °FMostly cloudy.3 mph88%30.12 "HgN/A
10:50 PM48 °FMostly cloudy.2 mph94%30.12 "HgN/A
10:20 PM48 °FClear.No wind94%30.12 "Hg10 mi
9:50 PM48 °FClear.2 mph100%30.12 "Hg10 mi
9:20 PM48 °FSunny.2 mph100%30.09 "Hg10 mi
8:20 PM50 °FSunny.1 mph94%30.09 "Hg10 mi
7:50 PM52 °FSunny.2 mph88%30.09 "Hg10 mi
7:20 PM52 °FSunny.2 mph88%30.09 "Hg10 mi
6:50 PM52 °FSunny.2 mph82%30.09 "Hg10 mi
6:20 PM52 °FOvercast.5 mph82%30.09 "HgN/A
5:50 PM52 °FOvercast.6 mph82%30.09 "HgN/A
5:20 PM52 °FRain. Mostly cloudy.7 mph77%30.09 "HgN/A
4:50 PM54 °FSunny.3 mph67%30.07 "Hg10 mi
4:20 PM54 °FPartly sunny.6 mph72%30.07 "HgN/A
3:50 PM52 °FSprinkles. Partly sunny.6 mph77%30.07 "HgN/A
3:20 PM54 °FLight rain. Overcast.7 mph67%30.07 "HgN/A
2:50 PM54 °FMostly cloudy.5 mph72%30.07 "HgN/A
2:20 PM54 °FOvercast.7 mph72%30.07 "HgN/A
1:50 PM54 °FMostly cloudy.7 mph67%30.07 "HgN/A
1:20 PM54 °FOvercast.7 mph72%30.07 "HgN/A
12:50 PM52 °FBroken clouds.7 mph72%30.07 "HgN/A
12:20 PM54 °FBroken clouds.9 mph67%30.07 "HgN/A
11:50 AM52 °FBroken clouds.8 mph77%30.04 "HgN/A
11:20 AM52 °FPartly sunny.9 mph77%30.04 "HgN/A
10:50 AM50 °FMostly cloudy.8 mph82%30.04 "HgN/A
10:20 AM50 °FMostly cloudy.6 mph82%30.04 "HgN/A
9:50 AM50 °FMore clouds than sun.6 mph82%30.04 "HgN/A
9:20 AM48 °FOvercast.7 mph87%30.04 "HgN/A
8:50 AM48 °FPartly sunny.5 mph87%30.04 "HgN/A
8:20 AM46 °FSunny.6 mph87%30.04 "Hg10 mi
7:50 AM46 °FPassing clouds.6 mph87%30.01 "HgN/A
7:20 AM46 °FSunny.7 mph87%30.01 "Hg10 mi
6:50 AM45 °FClear.6 mph93%30.01 "Hg10 mi
6:20 AM46 °FClear.7 mph87%30.01 "Hg10 mi
5:50 AM46 °FOvercast.6 mph87%30.01 "HgN/A
5:20 AM46 °FOvercast.7 mph87%29.98 "HgN/A
4:50 AM46 °FClear.7 mph87%29.98 "Hg10 mi
4:20 AM46 °FClear.5 mph87%29.98 "Hg10 mi
3:50 AM46 °FOvercast.6 mph87%29.98 "HgN/A
3:20 AM48 °FClear.6 mph87%29.98 "Hg10 mi
Weather by CustomWeather, © 2014

See weather overviewHow to use our weather pages